Weather History for KAIO - October, 2012

Change the Weather History Date:

Monday, October 8, 2012

  Actual Average Record
Temperature  
Mean Temperature 54 °F -  
Max Temperature 68 °F 66 °F 82 °F (2003)
Min Temperature 39 °F 41 °F 19 °F (2000)
Degree Days  
Heating Degree Days 12    
Growing Degree Days 4 (Base 50)    
Moisture  
Dew Point 32 °F    
Average Humidity 51    
Maximum Humidity 75    
Minimum Humidity 24    
Precipitation  
Precipitation 0.00 in - - ()
Sea Level Pressure  
Sea Level Pressure 29.90 in    
Wind  
Wind Speed 13 mph (SSW)    
Max Wind Speed 26 mph    
Max Gust Speed 33 mph    
Visibility 9 miles    
Events      
Averages and records for this station are not official NWS values.
T = Trace of Precipitation, MM = Missing Value Source: NWS Daily Summary

Daily Weather History Graph

Daily Weather History Graph

Search for Another Location

Airport or City:

Trip Planner

Search our weather history database for the weather conditions in past years. The results will help you decide how hot, cold, wet, or windy it might be!

Date:

Astronomy

Oct. 08, 2012 Rise Set
Actual Time 7:24 AM CDT 6:49 PM CDT
Civil Twilight 6:57 AM CDT 7:17 PM CDT
Nautical Twilight 6:25 AM CDT 7:49 PM CDT
Astronomical Twilight 5:53 AM CDT 8:21 PM CDT
Moon 12:01 AM CDT (10/8) 2:43 PM CDT (10/8)
Length of Visible Light 12h 19m
Length of Day
11h 24m
Last Quarter, 46% of the Moon is Illuminated
Oct 8
Last Quarter
Oct 15
New
Oct 21
First Quarter
Oct 29
Full
Nov 6
Last Quarter

Hourly Weather History & Observations

Time (CDT) Temp. Windchill Dew Point Humidity Pressure Visibility Wind Dir Wind Speed Gust Speed Precip Events Conditions
12:15 AM 41.0 °F 34.3 °F 28.4 °F 61% 30.03 in 10.0 mi SSW 11.5 mph - N/A   Clear
12:35 AM 41.0 °F 34.7 °F 28.4 °F 61% 30.03 in 10.0 mi SSW 10.4 mph - N/A   Clear
12:55 AM 41.0 °F 34.7 °F 28.4 °F 61% 30.02 in 10.0 mi SSW 10.4 mph - N/A   Clear
1:15 AM 41.0 °F 35.2 °F 28.4 °F 61% 30.02 in 10.0 mi SSW 9.2 mph - N/A   Clear
1:35 AM 39.2 °F 33.0 °F 30.2 °F 70% 30.02 in 10.0 mi SSW 9.2 mph - N/A   Clear
1:55 AM 39.2 °F 33.0 °F 30.2 °F 70% 30.02 in 10.0 mi South 9.2 mph - N/A   Clear
2:15 AM 39.2 °F 33.0 °F 30.2 °F 70% 30.02 in 10.0 mi South 9.2 mph - N/A   Clear
2:35 AM 39.2 °F 32.5 °F 30.2 °F 70% 30.02 in 10.0 mi South 10.4 mph - N/A   Clear
2:55 AM 39.2 °F 32.5 °F 30.2 °F 70% 30.01 in 10.0 mi SSW 10.4 mph - N/A   Partly Cloudy
3:15 AM 39.2 °F 32.5 °F 30.2 °F 70% 30.00 in 10.0 mi South 10.4 mph - N/A   Scattered Clouds
3:35 AM 39.2 °F 33.0 °F 32.0 °F 75% 29.99 in 10.0 mi South 9.2 mph - N/A   Partly Cloudy
3:55 AM 39.2 °F 32.5 °F 32.0 °F 75% 29.98 in 10.0 mi South 10.4 mph - N/A   Clear
4:15 AM 39.2 °F 32.5 °F 32.0 °F 75% 29.98 in 10.0 mi SSW 10.4 mph - N/A   Clear
4:35 AM 39.2 °F 32.5 °F 32.0 °F 75% 29.98 in 10.0 mi SSW 10.4 mph - N/A   Clear
4:55 AM 39.2 °F 32.5 °F 32.0 °F 75% 29.98 in 10.0 mi SSW 10.4 mph - N/A   Clear
5:15 AM 39.2 °F 32.5 °F 32.0 °F 75% 29.97 in 10.0 mi SSW 10.4 mph - N/A   Clear
5:35 AM 39.2 °F 32.0 °F 32.0 °F 75% 29.97 in 10.0 mi SSW 11.5 mph - N/A   Clear
5:55 AM 39.2 °F 32.0 °F 32.0 °F 75% 29.97 in 10.0 mi SSW 11.5 mph - N/A   Unknown
6:15 AM 39.2 °F 32.0 °F 32.0 °F 75% 29.97 in 10.0 mi SSW 11.5 mph - N/A   Unknown
6:35 AM 39.2 °F 32.0 °F 32.0 °F 75% 29.97 in 10.0 mi SSW 11.5 mph - N/A   Clear
6:55 AM 39.2 °F 32.0 °F 32.0 °F 75% 29.97 in 10.0 mi SSW 11.5 mph - N/A   Clear
7:15 AM 39.2 °F 31.6 °F 32.0 °F 75% 29.97 in 10.0 mi SSW 12.7 mph 19.6 mph N/A   Clear
7:35 AM 39.2 °F 32.0 °F 32.0 °F 75% 29.97 in 10.0 mi South 11.5 mph - N/A   Clear
7:55 AM 39.2 °F 32.0 °F 32.0 °F 75% 29.97 in 10.0 mi SSW 11.5 mph - N/A   Clear
8:15 AM 41.0 °F 33.5 °F 32.0 °F 70% 29.97 in 10.0 mi SSW 13.8 mph - N/A   Clear
8:35 AM 41.0 °F 33.5 °F 32.0 °F 70% 29.97 in 10.0 mi SSW 13.8 mph - N/A   Clear
8:55 AM 42.8 °F 36.2 °F 32.0 °F 66% 29.97 in 10.0 mi SSW 12.7 mph - N/A   Clear
9:15 AM 44.6 °F 38.8 °F 32.0 °F 61% 29.96 in 10.0 mi South 11.5 mph 18.4 mph N/A   Clear
9:35 AM 46.4 °F 40.4 °F 33.8 °F 62% 29.96 in 10.0 mi SSW 13.8 mph - N/A   Clear
9:55 AM 48.2 °F - 32.0 °F 54% 29.95 in 10.0 mi SSW 13.8 mph 21.9 mph N/A   Clear
10:15 AM 48.2 °F - 33.8 °F 58% 29.95 in 9.0 mi SSW 16.1 mph - N/A   Clear
10:35 AM 51.8 °F - 33.8 °F 50% 29.94 in 10.0 mi South 15.0 mph 21.9 mph N/A   Clear
10:55 AM 53.6 °F - 33.8 °F 47% 29.94 in 10.0 mi SSW 15.0 mph - N/A   Clear
11:15 AM 51.8 °F - 33.8 °F 50% 29.94 in 10.0 mi South 17.3 mph 23.0 mph N/A   Clear
11:35 AM 53.6 °F - 33.8 °F 47% 29.93 in 10.0 mi SSW 18.4 mph - N/A   Clear
11:55 AM 55.4 °F - 33.8 °F 44% 29.92 in 10.0 mi South 16.1 mph 23.0 mph N/A   Clear
12:15 PM 59.0 °F - 32.0 °F 36% 29.92 in 10.0 mi SSW 19.6 mph 25.3 mph N/A   Clear
12:55 PM 60.8 °F - 33.8 °F 36% 29.89 in 9.0 mi South 23.0 mph 28.8 mph N/A   Clear
1:15 PM 62.6 °F - 33.8 °F 34% 29.87 in 9.0 mi SSW 24.2 mph 29.9 mph N/A   Clear
1:35 PM 64.4 °F - 33.8 °F 32% 29.86 in 8.0 mi SSW 24.2 mph 31.1 mph N/A   Clear
1:55 PM 64.4 °F - 33.8 °F 32% 29.86 in 8.0 mi SSW 21.9 mph 32.2 mph N/A   Clear
2:15 PM 66.2 °F - 32.0 °F 28% 29.84 in 8.0 mi South 19.6 mph 29.9 mph N/A   Clear
2:35 PM 66.2 °F - 32.0 °F 28% 29.84 in 8.0 mi SSW 19.6 mph 32.2 mph N/A   Clear
2:55 PM 66.2 °F - 32.0 °F 28% 29.82 in 10.0 mi SSW 23.0 mph - N/A   Clear
3:15 PM 68.0 °F - 32.0 °F 26% 29.82 in 9.0 mi SSW 24.2 mph 31.1 mph N/A   Clear
3:35 PM 68.0 °F - 30.2 °F 24% 29.81 in 3.0 mi SSW 21.9 mph 32.2 mph N/A   Haze
3:55 PM 68.0 °F - 30.2 °F 24% 29.81 in 5.0 mi SSW 21.9 mph 29.9 mph N/A   Haze
4:15 PM 68.0 °F - 30.2 °F 24% 29.80 in 5.0 mi SSW 26.5 mph 33.4 mph N/A   Haze
4:35 PM 68.0 °F - 30.2 °F 24% 29.80 in 10.0 mi SW 20.7 mph 32.2 mph N/A   Clear
4:55 PM 68.0 °F - 32.0 °F 26% 29.80 in 5.0 mi SSW 20.7 mph 27.6 mph N/A   Haze
5:15 PM 68.0 °F - 32.0 °F 26% 29.80 in 8.0 mi SSW 24.2 mph - N/A   Clear
5:35 PM 68.0 °F - 32.0 °F 26% 29.80 in 9.0 mi SSW 19.6 mph - N/A   Clear
5:55 PM 66.2 °F - 32.0 °F 28% 29.80 in 10.0 mi SSW 13.8 mph 23.0 mph N/A   Clear
6:15 PM 66.2 °F - 32.0 °F 28% 29.80 in 9.0 mi SSW 15.0 mph - N/A   Clear
6:35 PM 64.4 °F - 32.0 °F 30% 29.80 in 8.0 mi SSW 13.8 mph 19.6 mph N/A   Clear
6:55 PM 62.6 °F - 32.0 °F 32% 29.80 in 6.0 mi South 10.4 mph - N/A   Haze
7:15 PM 60.8 °F - 32.0 °F 34% 29.80 in 10.0 mi South 12.7 mph - N/A   Clear
7:35 PM 60.8 °F - 32.0 °F 34% 29.80 in 10.0 mi South 11.5 mph - N/A   Partly Cloudy
8:35 PM 60.8 °F - 32.0 °F 34% 29.80 in 10.0 mi South 15.0 mph 20.7 mph N/A   Scattered Clouds
8:55 PM 59.0 °F - 32.0 °F 36% 29.80 in 10.0 mi South 15.0 mph - N/A   Partly Cloudy
9:15 PM 57.2 °F - 33.8 °F 41% 29.81 in 10.0 mi South 15.0 mph - N/A   Partly Cloudy
9:35 PM 57.2 °F - 33.8 °F 41% 29.80 in 10.0 mi South 16.1 mph 23.0 mph N/A   Partly Cloudy
9:55 PM 57.2 °F - 33.8 °F 41% 29.81 in 10.0 mi South 16.1 mph 24.2 mph N/A   Clear
10:15 PM 57.2 °F - 33.8 °F 41% 29.81 in 10.0 mi South 15.0 mph 21.9 mph N/A   Clear
10:55 PM 55.4 °F - 33.8 °F 44% 29.81 in 10.0 mi South 18.4 mph 24.2 mph N/A   Clear
11:15 PM 55.4 °F - 33.8 °F 44% 29.81 in 10.0 mi SSW 17.3 mph 23.0 mph N/A   Clear
11:35 PM 55.4 °F - 33.8 °F 44% 29.84 in 10.0 mi WSW 8.1 mph 15.0 mph N/A   Clear
11:55 PM 53.6 °F - 33.8 °F 47% 29.84 in 10.0 mi SW 8.1 mph - N/A   Clear